This demonstration page uses our WeatherBlox Daily Observations layout. Learn more.

Left ArrowRight Arrow

41.55636, -103.73856

Hourly Observations for January 31, 2021

Temp ( °F °C ) Dew Point ( °F °C ) Humidity (%) Winds ( mph kmh ) Pressure ( in mb ) Visibility ( mi km ) Precip ( " mm )
12:58 am 00:58 Clear 28 -2.1 27 -2.9 94 94 NW 9 15 30.38 1029 10 16.0934 0 0
1:58 am 01:58 Mostly Clear 27 -2.6 23 -5.2 83 83 W 5 7 30.42 1030 10 16.0934 0 0
2:58 am 02:58 Clear 27 -2.8 21 -6.2 78 78 WNW 12 19 30.33 1027 10 16.0934 0 0
3:58 am 03:58 Partly Cloudy 28 -2.5 21 -6.2 76 76 WNW 14 22 30.35 1028 10 16.0934 0 0
4:58 am 04:58 Mostly Cloudy 26 -3.6 21 -6.2 82 82 WNW 7 11 30.39 1029 10 16.0934 0 0
5:58 am 05:58 Mostly Cloudy 25 -3.8 21 -6.3 83 83 NW 10 17 30.41 1030 10 16.0934 0 0
6:58 am 06:58 Mostly Cloudy 27 -2.8 19 -7.2 72 72 WNW 10 17 30.43 1031 10 16.0934 0 0
7:58 am 07:58 Sunny 28 -2.2 18 -7.6 67 67 WNW 14 22 30.47 1032 10 16.0934 0 0
8:58 am 08:58 Sunny 32 0.2 19 -7.3 57 57 WNW 14 22 30.45 1031 10 16.0934 0 0
9:58 am 09:58 Sunny 37 2.7 16 -8.8 43 43 NW 16 26 30.44 1031 10 16.0934 0 0
10:58 am 10:58 Sunny 41 5.2 15 -9.7 34 34 NW 21 33 30.44 1031 10 16.0934 0 0
11:58 am 11:58 Sunny 43 6.2 13 -10.7 29 29 NW 17 28 30.41 1030 10 16.0934 0 0
12:58 pm 12:58 Sunny 45 7.3 11 -11.7 25 25 NNW 13 20 30.39 1029 10 16.0934 0 0
1:58 pm 13:58 Sunny 46 7.7 11 -11.4 25 25 NNW 13 20 30.38 1029 10 16.0934 0 0
2:58 pm 14:58 Sunny 47 8.2 8 -13.3 20 20 NW 13 20 30.38 1029 10 16.0934 0 0
3:58 pm 15:58 Sunny 47 8.2 9 -12.6 22 22 NNW 8 13 30.36 1028 10 16.0934 0 0
4:58 pm 16:58 Sunny 42 5.7 8 -13.1 25 25 NNW 6 9 30.38 1029 10 16.0934 0 0
5:58 pm 17:58 Clear 38 3.6 8 -13.1 29 29 SW 5 7 30.4 1030 10 16.0934 0 0
6:58 pm 18:58 Clear 36 2.3 8 -13.1 31 31 SW 3 6 30.41 1030 10 16.0934 0 0
7:58 pm 19:58 Clear 34 1.1 10 -12.3 36 36 SSW 5 7 30.42 1030 10 16.0934 0 0
9:58 pm 21:58 Clear 30 -0.9 12 -10.9 47 47 S 7 11 30.39 1029 10 16.0934 0 0
10:58 pm 22:58 Clear 30 -0.9 10 -12.4 42 42 S 5 7 30.38 1029 10 16.0934 0 0
11:58 pm 23:58 Clear 28 -2 12 -11.3 49 49 SSW 10 17 30.36 1028 10 16.0934 0 0

Powered by AerisWeather